Temperature
24 23 22 22 21 21 21 20 20 19 19 19 19 18 18 18 18 18 18 18 18 18 18 18 18 18 17 17 17 17 17 17 17 17 17 17 17 17 17 17 17 17 17
23 23 22 22 21 21 21 20 20 19 19 19 19 19 19 18 18 18 18 18 18 18 18 18 18 18 17 17 17 17 17 17 17 17 17 17 17 17 17 17 17 17 17
23 22 22 22 21 21 21 20 20 20 19 19 19 18 18 18 18 18 18 18 18 18 18 18 18 17 17 17 17 17 17 17 17 17 17 17 17 17 17 17 17 17 17
23 22 22 21 21 21 20 20 20 19 19 19 19 18 18 18 18 18 18 18 17 17 17 17 17 17 17 17 17 17 17 17 17 17 17 17 17 17 17 17 17 17 17
23 23 22 22 21 21 20 20 19 19 19 19 19 18 18 18 18 18 18 18 17 17 17 17 17 17 17 17 17 17 17 17 17 17 17 17 17 17 17 17 17 17 17
23 22 22 22 21 20 20 20 19 19 19 18 18 18 18 18 18 18 18 17 17 17 17 17 17 17 17 17 17 17 17 17 17 17 17 17 17 17 17 17 17 17 17
22 22 22 21 21 20 20 20 19 19 19 18 18 18 18 18 18 18 18 18 17 17 17 17 17 17 17 17 17 17 17 17 17 17 17 17 17 17 17 17 17 17 17
22 22 22 21 21 21 20 19 19 19 19 18 18 18 18 18 18 18 18 18 18 18 17 17 17 17 17 17 17 17 17 17 17 17 17 17 17 17 17 17 17 17 17
22 22 22 21 21 20 20 19 19 19 18 18 18 18 18 18 18 18 18 18 18 17 17 17 17 17 17 17 17 17 17 17 17 17 17 17 17 17 17 17 17 17 17
22 21 21 21 21 20 20 19 19 19 18 18 18 18 18 17 17 17 17 17 17 17 17 17 17 17 17 17 17 17 17 16 16 16 16 16 16 17 17 17 17 17 17
21 21 21 21 20 20 19 19 18 18 18 18 18 17 17 17 17 17 17 17 17 17 17 17 17 17 17 17 16 16 16 16 16 16 16 16 16 16 16 17 17 17 17
21 21 20 20 20 19 19 19 18 18 18 18 17 17 17 17 17 17 17 17 17 17 17 17 17 17 17 16 16 16 16 16 16 16 16 16 16 16 16 16 16 16 16
20 20 20 20 19 19 19 18 18 18 18 17 17 17 17 17 17 17 17 17 17 17 17 16 16 16 16 16 16 16 16 16 16 16 16 16 16 16 16 16 16 16 16
20 20 19 19 19 19 18 18 18 18 18 17 17 17 17 17 17 17 17 16 16 16 16 16 16 16 16 16 16 15 15 15 15 15 15 15 15 15 15 15 15 15 15
20 19 19 19 19 19 18 18 18 18 17 17 17 17 17 17 16 16 16 16 16 16 16 16 16 16 16 15 15 15 15 15 15 15 15 15 15 15 15 15 14 14 14
20 20 19 19 19 19 19 18 18 17 17 17 17 17 17 17 16 16 16 16 16 16 16 16 16 15 15 15 15 15 15 15 14 14 14 14 14 14 14 14 14 14 13
20 20 19 19 19 19 19 18 18 17 17 17 17 17 17 16 16 16 16 16 16 15 15 15 15 15 15 15 15 14 14 14 14 14 14 14 14 13 13 13 13 13 13
20 20 19 19 19 18 18 18 17 17 17 17 17 16 16 16 16 16 16 15 15 15 15 15 15 15 14 14 14 14 14 14 13 13 13 13 13 12 12 12 12 12 12
20 20 19 19 19 18 18 18 17 17 17 17 16 16 16 16 16 16 15 15 15 15 14 14 14 14 14 14 14 13 13 13 13 12 12 12 12 12 11 12 11 11 10
20 19 19 19 18 18 18 17 17 16 16 16 16 16 16 16 15 15 15 15 14 14 14 14 13 13 13 13 13 13 13 13 12 12 11 11 11 11 10 10 10 10 9
19 19 19 18 18 17 17 17 16 16 16 16 15 15 15 15 15 14 14 14 14 13 13 13 13 12 12 12 12 12 12 12 12 11 11 10 10 10 10 9 9 9 8
18 18 18 17 17 17 17 16 16 16 15 15 15 15 14 14 14 14 14 13 13 13 13 12 12 12 12 11 11 11 11 11 11 10 10 9 9 9 9 8 8 8 8
17 17 17 17 16 16 16 16 16 15 15 14 14 14 14 14 13 13 13 13 13 13 12 12 11 11 11 11 11 10 10 10 10 9 9 8 8 8 7 7 7 7 7
17 16 16 16 16 15 15 15 15 14 14 14 14 14 13 13 13 13 12 12 12 12 12 11 11 11 10 10 10 10 9 9 9 8 8 7 7 7 7 6 6 6 6
16 16 15 15 15 15 15 14 14 14 14 14 13 13 13 12 12 12 12 11 11 11 11 11 11 10 10 9 9 9 9 8 8 8 7 7 6 6 6 6 5 5 5
15 15 15 15 14 14 14 14 13 13 13 13 13 12 12 12 11 11 11 10 10 10 10 10 10 9 9 9 8 8 8 7 7 7 7 6 6 6 5 5 5 5 5
Wind_Speed
10 11 13 15 14 13 13 13 13 12 10 8 7 6 5 5 5 5 9 11 11 11 9 5 5 5 5 5 5 4 4 2 2 3 2 2 1 2 3 4 5 8 12
9 11 12 13 14 14 13 13 13 13 11 9 7 5 5 4 5 4 7 10 10 10 9 6 5 5 5 5 5 4 3 2 3 3 3 1 3 3 2 2 4 5 8
14 14 13 12 12 13 14 13 12 12 11 10 7 6 4 4 3 4 5 6 10 10 9 8 6 5 5 5 5 5 6 4 2 3 4 3 4 2 3 2 3 4 4
12 12 13 13 13 13 12 11 11 11 10 10 10 9 7 6 6 5 5 6 8 9 9 8 8 6 5 6 6 5 4 5 3 2 2 3 4 3 1 3 2 3 4
12 13 14 14 13 12 11 10 11 10 10 10 11 10 7 6 4 5 6 6 5 6 8 8 7 6 5 6 6 5 5 4 5 4 2 2 1 2 3 2 2 2 2
11 10 10 10 9 10 10 10 11 10 10 10 10 10 10 8 8 7 7 6 4 4 6 8 7 6 6 6 6 6 6 5 5 4 3 3 3 3 3 3 3 2 2
10 11 11 10 10 11 10 10 11 10 10 10 10 10 10 10 10 9 8 7 5 5 7 7 6 5 6 6 6 6 5 6 5 5 4 3 3 3 4 3 2 2 2
8 10 11 11 10 10 10 10 10 9 10 10 10 9 9 7 7 8 8 8 6 6 6 6 6 6 6 6 5 4 5 5 5 6 5 3 3 3 3 4 4 2 1
9 9 9 9 9 9 8 9 9 8 8 9 8 8 8 8 8 8 7 6 5 6 6 6 6 5 5 5 6 5 5 5 5 5 4 3 3 2 3 3 4 5 3
8 8 8 8 8 8 7 7 7 7 6 7 7 7 7 7 7 7 7 7 6 6 7 7 6 6 6 6 5 4 5 5 5 4 4 3 2 2 2 2 2 3 4
9 9 7 7 7 7 7 7 6 5 5 6 6 6 5 6 6 6 6 6 6 6 7 7 6 6 6 6 6 6 5 6 5 4 5 4 4 3 2 2 2 3 4
8 8 8 7 7 7 7 7 6 6 6 5 5 5 4 5 5 5 5 5 6 6 6 5 5 6 6 6 7 7 6 6 6 5 5 4 4 4 3 2 3 2 3
8 7 7 7 7 6 6 6 6 6 6 6 5 5 5 5 5 5 5 5 5 5 5 5 5 5 5 6 6 6 5 5 5 6 6 5 4 3 2 3 3 2 3
8 7 7 6 6 6 5 5 5 6 6 6 6 5 5 5 4 4 4 4 4 4 4 4 5 5 5 5 6 6 5 4 4 4 5 5 5 5 4 3 3 3 4
9 8 7 7 7 7 6 5 5 6 6 6 5 5 4 4 4 4 4 4 3 4 4 4 4 4 4 5 6 6 6 6 5 4 4 4 6 7 5 3 3 4 5
11 10 8 8 8 7 7 6 6 5 6 6 5 4 4 4 4 4 4 4 3 3 4 4 4 4 3 5 8 8 6 6 7 6 6 6 8 10 11 10 9 7 7
11 10 8 7 7 6 7 7 6 5 6 5 5 4 5 5 4 4 4 4 4 3 4 4 4 4 4 7 9 10 8 7 7 6 6 6 7 8 8 12 14 13 13
11 10 8 6 6 6 6 7 7 6 6 5 5 5 5 5 4 5 4 4 4 4 4 5 5 5 5 8 11 12 9 8 8 7 7 8 7 7 9 10 11 10 9
9 9 8 8 6 7 7 8 7 6 6 6 5 4 5 5 5 5 4 4 5 5 5 6 7 7 7 9 11 11 9 9 10 8 8 8 8 10 12 12 12 11 9
9 9 8 8 7 6 7 8 7 6 6 5 5 5 5 6 6 5 5 5 6 7 7 8 7 8 8 10 12 11 8 10 9 8 8 11 11 11 12 10 10 10 7
9 9 9 7 5 6 8 7 7 6 5 6 6 5 5 5 6 6 5 6 8 8 8 9 7 7 8 9 11 11 8 9 9 8 6 7 13 14 13 11 9 9 7
9 9 9 7 5 6 8 8 6 5 6 7 7 6 6 5 5 7 7 7 9 9 8 8 8 6 6 8 10 12 11 10 10 8 7 8 14 15 14 11 11 12 10
8 8 8 8 6 5 7 8 5 6 8 8 8 7 7 7 6 7 8 7 7 7 7 7 7 6 5 7 11 13 13 12 9 9 12 13 14 13 11 13 13 10 7
7 7 8 8 6 5 6 6 6 7 9 9 8 7 7 7 7 6 6 6 6 6 6 7 7 6 5 5 5 7 9 12 11 10 11 13 13 11 10 9 7 6 5
6 7 8 8 7 6 6 6 7 8 9 9 8 7 7 8 8 8 7 5 4 4 6 6 7 8 7 5 8 9 7 7 8 9 7 6 6 6 5 5 5 5 5
7 8 8 8 7 7 6 5 6 8 10 8 7 6 6 7 7 8 9 14 11 12 11 9 8 7 9 13 13 13 13 13 12 9 7 6 6 5 5 4 4 4 4
Wind_Direction
180 171 169 167 163 163 163 165 161 162 157 154 153 150 159 160 162 171 175 173 172 167 161 164 158 152 158 168 158 143 145 143 128 90 33 348 316 218 210 200 193 201 207
159 163 164 166 168 170 168 167 165 166 166 165 160 154 148 157 168 171 177 178 176 173 172 161 162 159 155 158 160 147 141 159 145 131 105 18 336 317 248 200 196 199 200
168 167 164 166 168 171 172 172 170 168 166 158 143 130 117 115 145 174 182 186 180 178 174 166 162 167 164 169 174 163 153 166 183 157 148 155 217 272 309 250 212 196 194
164 165 163 166 172 176 171 164 167 167 165 160 161 161 166 172 184 180 182 187 182 181 179 167 167 172 172 174 182 177 162 153 171 189 185 173 163 162 258 312 280 226 208
165 166 168 170 170 169 167 164 165 169 167 169 171 171 173 175 169 166 173 184 189 189 183 174 171 176 180 182 182 172 167 162 167 173 171 158 138 137 151 232 289 301 252
166 163 157 154 158 160 164 164 166 174 174 174 176 176 176 172 168 173 179 185 188 194 192 181 177 181 183 184 185 179 169 170 166 167 164 163 160 180 166 188 225 238 267
157 153 155 159 161 163 167 167 168 176 178 178 182 184 183 179 181 181 185 184 187 195 199 193 185 185 187 183 176 174 174 171 169 173 179 181 184 172 164 164 191 220 279
158 159 163 165 165 166 167 169 175 180 183 185 188 187 184 183 187 187 184 187 192 194 189 190 191 189 182 182 174 176 184 177 179 185 180 180 194 177 174 169 159 153 337
161 160 160 158 162 164 171 176 176 179 183 185 181 184 187 186 187 187 183 187 187 188 182 184 186 189 183 178 172 181 186 175 181 186 183 184 201 189 187 173 161 155 167
159 154 157 161 160 163 166 169 170 177 176 177 180 184 185 185 183 179 182 187 189 186 177 184 187 187 186 184 178 180 184 176 187 184 180 194 202 178 168 162 154 152 157
158 152 148 149 147 147 149 153 157 158 162 166 171 170 176 176 174 179 184 184 184 180 180 188 189 189 190 187 182 187 181 182 189 189 183 192 184 161 149 136 132 134 136
151 149 146 139 138 143 146 150 154 155 160 157 149 154 158 162 171 180 181 177 177 180 183 184 187 190 189 184 182 190 185 185 188 188 177 185 180 162 155 141 130 136 137
140 142 141 140 142 145 145 149 154 154 150 144 142 144 152 161 172 175 171 172 176 179 181 177 186 188 184 181 181 178 175 181 185 180 173 173 158 160 148 138 145 144 128
141 141 140 131 131 135 140 149 153 148 145 144 146 152 162 167 168 159 157 163 168 171 177 180 181 176 174 171 163 158 157 158 161 162 157 156 152 156 149 140 148 134 115
147 146 142 138 138 140 143 140 139 141 143 141 148 161 163 148 140 141 145 141 149 167 166 157 156 160 165 169 154 151 152 148 137 124 121 126 122 121 123 127 130 127 121
157 149 146 147 153 157 154 140 139 138 136 140 145 144 140 137 136 138 141 137 136 137 139 143 145 151 164 153 151 146 138 133 128 120 107 100 96 97 95 96 98 113 125
152 147 152 156 158 160 150 146 147 136 133 135 134 128 128 127 128 136 132 139 146 139 131 137 138 135 135 139 139 134 130 124 124 124 120 109 98 94 94 85 77 73 82
150 149 154 156 153 144 135 133 131 130 129 124 124 126 128 129 126 119 124 132 128 126 122 118 120 117 114 120 121 115 110 104 99 98 102 105 100 103 107 98 85 74 67
146 147 151 146 142 139 136 130 132 133 130 129 129 132 135 130 127 128 126 119 115 109 104 102 103 106 103 106 114 113 111 102 93 88 91 102 102 104 108 105 100 89 78
127 131 130 122 128 136 136 134 137 136 136 135 134 126 126 131 130 130 123 115 113 108 102 93 91 99 101 100 109 113 114 108 100 87 81 87 99 103 107 107 107 102 95
117 123 121 118 128 133 128 132 134 139 138 128 120 113 111 116 119 115 109 112 111 107 101 95 86 85 93 96 101 108 116 120 113 103 91 87 96 97 95 96 100 107 103
114 118 118 114 112 119 126 127 132 135 126 121 116 111 106 106 110 112 108 108 112 110 107 104 94 82 84 92 98 99 105 112 112 110 105 100 97 93 91 89 91 91 89
118 117 117 113 105 109 122 127 127 122 118 115 113 108 102 97 103 113 114 112 111 115 116 115 110 101 91 89 90 96 100 103 103 106 107 102 96 89 84 85 87 86 86
113 114 114 111 107 104 105 116 119 118 117 116 112 110 108 100 92 96 103 112 118 122 124 125 123 118 110 106 103 101 101 99 100 103 99 92 86 83 83 81 78 80 89
109 112 117 118 116 108 103 109 119 119 115 115 114 110 106 107 97 87 78 91 87 126 137 136 136 136 131 127 122 120 113 115 117 114 99 91 90 85 77 73 70 70 74
110 110 109 112 113 110 106 108 117 122 122 119 118 118 119 115 111 106 86 64 74 78 87 103 117 109 118 120 113 110 110 111 117 110 110 109 108 107 103 98 83 72 78
Height
1497 1500 1503 1506 1510 1513 1516 1519 1522 1526 1530 1533 1536 1539 1542 1544 1547 1549 1552 1554 1557 1559 1561 1563 1565 1567 1569 1571 1572 1574 1576 1577 1579 1580 1581 1582 1582 1583 1583 1584 1585 1586 1586
1494 1497 1500 1503 1507 1510 1513 1517 1520 1523 1527 1530 1533 1537 1540 1542 1545 1548 1550 1553 1555 1557 1559 1561 1563 1565 1567 1569 1571 1573 1574 1576 1577 1579 1579 1580 1582 1582 1582 1583 1583 1584 1585
1490 1494 1497 1501 1505 1508 1511 1515 1518 1521 1525 1528 1532 1535 1538 1541 1543 1545 1548 1551 1553 1555 1558 1559 1561 1563 1565 1567 1569 1571 1573 1574 1576 1577 1578 1579 1579 1580 1581 1581 1582 1583 1583
1489 1492 1495 1499 1502 1506 1510 1513 1516 1520 1523 1526 1529 1532 1534 1536 1539 1542 1545 1548 1550 1552 1555 1557 1559 1562 1564 1565 1567 1569 1571 1572 1574 1575 1576 1578 1578 1578 1578 1580 1580 1581 1581
1489 1491 1494 1498 1501 1505 1508 1511 1514 1518 1521 1524 1526 1529 1532 1534 1537 1540 1543 1545 1548 1550 1552 1555 1557 1559 1561 1563 1565 1567 1568 1570 1572 1573 1574 1575 1576 1576 1577 1577 1578 1579 1579
1490 1492 1495 1498 1501 1504 1507 1510 1513 1515 1518 1521 1523 1526 1529 1532 1534 1537 1539 1542 1545 1547 1549 1552 1554 1556 1558 1560 1562 1564 1566 1568 1569 1571 1572 1573 1574 1574 1575 1575 1576 1577 1578
1490 1492 1495 1498 1500 1503 1506 1509 1511 1513 1515 1518 1520 1523 1526 1528 1531 1534 1536 1539 1541 1544 1546 1549 1551 1553 1555 1557 1559 1561 1563 1565 1566 1568 1569 1571 1572 1573 1573 1574 1574 1575 1576
1490 1492 1494 1497 1500 1502 1505 1507 1509 1511 1513 1516 1518 1520 1523 1525 1528 1530 1533 1536 1538 1540 1543 1545 1548 1550 1552 1554 1556 1558 1560 1562 1564 1565 1567 1568 1569 1570 1571 1572 1573 1573 1574
1491 1493 1495 1498 1500 1503 1504 1506 1508 1510 1512 1514 1516 1518 1520 1522 1525 1527 1530 1533 1535 1537 1540 1542 1544 1547 1549 1551 1553 1555 1557 1559 1560 1562 1564 1565 1566 1568 1568 1569 1570 1571 1571
1491 1493 1495 1499 1501 1503 1505 1506 1508 1509 1511 1512 1514 1515 1518 1520 1522 1524 1527 1529 1532 1534 1536 1538 1541 1543 1545 1547 1550 1551 1553 1555 1556 1558 1560 1562 1563 1565 1566 1567 1567 1568 1569
1490 1493 1496 1499 1501 1503 1505 1506 1507 1509 1510 1511 1512 1514 1515 1517 1519 1521 1523 1526 1528 1530 1532 1535 1537 1539 1541 1543 1545 1547 1549 1551 1553 1554 1556 1558 1560 1561 1563 1564 1565 1565 1566
1492 1494 1496 1498 1501 1502 1504 1505 1507 1508 1509 1510 1511 1512 1514 1515 1517 1518 1520 1523 1525 1527 1529 1531 1533 1535 1537 1539 1541 1543 1545 1547 1549 1550 1552 1554 1556 1558 1559 1560 1561 1562 1563
1492 1494 1496 1498 1501 1503 1504 1505 1506 1507 1508 1510 1510 1511 1512 1514 1515 1516 1518 1520 1522 1524 1526 1528 1529 1531 1533 1535 1537 1539 1541 1543 1545 1547 1549 1550 1552 1553 1555 1556 1558 1559 1560
1491 1494 1497 1499 1501 1503 1504 1506 1507 1508 1509 1509 1510 1511 1511 1512 1513 1514 1516 1518 1520 1521 1523 1524 1526 1528 1530 1532 1533 1535 1538 1539 1541 1543 1545 1547 1548 1550 1552 1553 1554 1555 1556
1492 1494 1497 1499 1501 1502 1504 1505 1506 1507 1508 1509 1509 1510 1511 1512 1513 1514 1515 1516 1517 1519 1521 1522 1523 1525 1527 1529 1530 1532 1534 1536 1538 1540 1542 1544 1545 1547 1548 1549 1550 1552 1553
1491 1494 1497 1499 1500 1501 1503 1504 1505 1507 1508 1508 1509 1510 1510 1511 1512 1513 1514 1515 1516 1517 1518 1520 1521 1522 1524 1526 1528 1530 1532 1534 1535 1538 1540 1541 1543 1544 1546 1547 1548 1549 1550
1488 1492 1496 1498 1500 1501 1502 1503 1505 1506 1507 1508 1508 1509 1510 1510 1511 1512 1513 1514 1515 1516 1517 1518 1519 1521 1522 1524 1525 1527 1529 1531 1533 1535 1537 1538 1540 1542 1543 1544 1546 1547 1548
1487 1491 1495 1497 1499 1501 1502 1503 1504 1505 1506 1507 1508 1509 1510 1510 1511 1512 1512 1513 1514 1515 1516 1517 1518 1519 1521 1522 1524 1525 1527 1529 1531 1533 1535 1536 1538 1540 1541 1543 1544 1545 1546
1487 1491 1494 1496 1498 1500 1501 1502 1503 1504 1505 1506 1507 1508 1509 1510 1510 1511 1512 1512 1513 1514 1515 1516 1517 1518 1520 1521 1523 1524 1526 1527 1529 1531 1533 1535 1536 1538 1540 1541 1542 1544 1545
1487 1490 1493 1495 1497 1498 1500 1501 1502 1503 1504 1505 1506 1507 1508 1509 1509 1510 1511 1512 1512 1513 1515 1516 1517 1518 1519 1521 1522 1524 1525 1527 1528 1531 1533 1535 1536 1538 1540 1541 1542 1543 1544
1486 1489 1491 1494 1496 1497 1498 1499 1501 1502 1503 1504 1505 1506 1507 1507 1508 1509 1510 1511 1511 1513 1514 1515 1517 1519 1520 1521 1523 1525 1526 1527 1529 1530 1533 1535 1537 1539 1540 1542 1543 1544 1545
1486 1488 1490 1492 1494 1496 1497 1498 1499 1500 1501 1502 1503 1504 1505 1506 1507 1508 1509 1510 1511 1512 1514 1515 1517 1519 1520 1522 1524 1526 1527 1528 1529 1531 1534 1536 1538 1540 1541 1542 1544 1545 1546
1485 1487 1489 1491 1493 1495 1496 1497 1498 1499 1500 1501 1502 1503 1504 1505 1506 1508 1508 1510 1511 1512 1513 1515 1516 1518 1521 1523 1525 1526 1528 1530 1531 1533 1535 1537 1539 1541 1542 1544 1545 1546 1547
1485 1487 1489 1491 1492 1494 1495 1496 1497 1498 1499 1500 1501 1502 1503 1504 1505 1507 1508 1509 1510 1512 1513 1515 1516 1519 1521 1523 1525 1526 1528 1530 1532 1534 1536 1539 1541 1543 1544 1545 1547 1547 1548
1485 1487 1489 1490 1491 1493 1494 1495 1496 1497 1498 1498 1500 1501 1502 1503 1505 1506 1507 1509 1511 1512 1514 1515 1517 1518 1520 1523 1525 1527 1528 1530 1533 1535 1537 1540 1542 1544 1545 1547 1548 1549 1550
1485 1487 1488 1489 1491 1492 1493 1494 1495 1496 1497 1498 1499 1500 1501 1503 1504 1505 1507 1510 1511 1513 1515 1516 1518 1520 1522 1524 1526 1528 1530 1532 1535 1537 1538 1541 1543 1545 1546 1548 1549 1550 1551